Regional Weather Roundup
Issued by NWS

Home | Current Version | Previous Version | Text Only | Print | Product List | Glossary Off
Versions: 1 2 3 4 5 6 7 8 9 10 11 12 13 14 15 16 17 18 19 20 21 22 23 24 25 26 27 28 29 30 31 32 33 34 35 36 37 38 39 40 41 42 43 44 45 46 47 48 49 50

000
ASUS43 KLSX 012207
RWRMO

WEATHER SUMMARY FOR MISSOURI
NATIONAL WEATHER SERVICE SPRINGFIELD MO
500 PM CDT WED JUL 01 2015

NOTE: "FAIR" INDICATES FEW OR NO CLOUDS BELOW 12,000 FEET WITH NO
       SIGNIFICANT WEATHER AND/OR OBSTRUCTIONS TO VISIBILITY.
       CURRENT SKY AND/OR WEATHER CONDITIONS ARE NOT AVAILABLE FOR
       CHILLICOTHE AND FARMINGTON.

MOZ001>031-035>038-043-044-053-054-012300-
...NORTHERN AND WESTERN MISSOURI...

CITY           SKY/WX    TMP DP  RH WIND       PRES   REMARKS
KANSAS CTY INT PTSUNNY   83  74  74 S7        29.82F
KANSAS C DTWN  CLOUDY    85  74  69 SE7       29.80S HX  92
LEE`S SUMMIT   PTSUNNY   83  74  74 SE5       29.83F
ST JOSEPH      MOSUNNY   85  73  67 E6        29.82S HX  91
CHILLICOTHE      N/A     84  73  69 VRB6      29.85S HX  90
KIRKSVILLE     CLOUDY    81  68  64 CALM      29.88S

$$
MOZ066>068-077>081-088>096-101>105-012300-
...SOUTHWEST MISSOURI...

CITY           SKY/WX    TMP DP  RH WIND       PRES   REMARKS
SPRINGFIELD    MOSUNNY   84  74  71 S20       29.87F HX  91
JOPLIN         CLOUDY    85  74  69 S14       29.83F HX  92

$$
MOZ032>034-039>042-045>050-055>058-069>072-012300-
...CENTRAL MISSOURI...

CITY           SKY/WX    TMP DP  RH WIND       PRES   REMARKS
COLUMBIA       PTSUNNY   79  70  74 S5        29.87S
JEFFERSON CITY MOSUNNY   82  70  66 S5        29.85S
ROLLA          MOSUNNY   79  71  76 S8        29.88F
SEDALIA        MOSUNNY   83  73  72 S6        29.86S
WHITEMAN AFB   PTSUNNY   81  74  78 S3        29.83F
WARRENSBURG    PTSUNNY   81  72  74 S5        29.83S
OSAGE BEACH    SUNNY     82  72  69 SE3       29.86F

$$
MOZ051-052-059>065-012300-
...EAST CENTRAL MISSOURI...

CITY           SKY/WX    TMP DP  RH WIND       PRES   REMARKS
ST LOUIS INTL  CLOUDY    83  68  60 NW6       29.86F
SPIRIT OF STL  PTSUNNY   84  70  62 CALM      29.84F
ST CHARLES     CLOUDY    83  70  64 CALM      29.84F

$$
MOZ072>076-082>087-097>100-106>115-012300-
...SOUTH CENTRAL AND SOUTHEAST MISSOURI...

CITY           SKY/WX    TMP DP  RH WIND       PRES   REMARKS
CAPE GIRARDEAU MOSUNNY   83  70  64 W14       29.89S
FARMINGTON     MOSUNNY   81  66  61 NW3       29.93F
WEST PLAINS    CLOUDY    76  71  85 S9        29.92F

$$


USA.gov is the U.S. government's official web portal to all federal, state and local government web resources and services.